Location: Hector
(40.9500°S, 175.2833°E)
Time: 21:55:43
(UTC+00:00)

Daily predictions for brighter satellites

Satellite Brightness Start Highest point End
(mag) Time Altitude Azimuth Time Altitude Azimuth Time Altitude Azimuth
Meteor 1-24 Rocket 3.5 12:02:24 10° SSW 12:07:48 83° W 12:07:50 82° WNW
Meteor 1-22 Rocket 4.3 12:10:20 59° W 12:10:43 61° WSW 12:16:16 10° S
Cosmos 1758 4.3 12:12:27 46° SSE 12:12:27 46° SSE 12:15:26 10° SSE
CENTAUR R/B 4.2 12:11:19 25° ENE 12:12:04 25° ENE 12:17:55 10° ESE
Cosmos 2279 Rocket 4.2 12:07:20 10° SSW 12:13:30 55° W 12:14:18 51° WNW
Cosmos 44 Rocket 3.8 12:16:00 52° W 12:16:35 55° SW 12:21:40 10° SSE
SL-16 R/B 4.2 12:13:03 13° W 12:16:41 22° SW 12:21:07 10° S
ARIANE 5 R/B 4.3 12:17:55 10° SSW 12:21:35 25° WSW 12:21:55 25° WSW
Cosmos 304 Rocket 3.9 12:22:02 74° S 12:22:02 74° S 12:26:29 10° SSE
Exosat Rocket 4.5 12:22:31 52° NNE 12:24:01 63° ENE 12:33:14 10° SSE
Cosmos 1025 Rocket 3.5 12:21:25 10° S 12:25:02 58° SSW 12:25:02 58° SSW
ERS-2 3.6 12:29:38 36° SSE 12:29:38 36° SSE 12:32:05 10° S
SL-8 R/B 4.1 12:26:34 10° WSW 12:31:22 60° SSE 12:32:28 47° ESE
Sich 1 Rocket 4.2 12:32:03 50° ESE 12:32:03 50° ESE 12:35:51 10° SSE
Milstar 3 4.4 12:34:21 29° NE 12:34:21 29° NE 12:42:01 10° ENE
Terra 4.4 12:33:50 10° SW 12:35:11 11° WSW 12:36:31 10° WSW
Cosmos 494 Rocket 4.0 12:32:11 10° SSW 12:37:31 71° ESE 12:37:54 67° E
Lacrosse 4 Rocket 4.2 12:35:46 10° SSE 12:37:50 13° SE 12:39:52 10° ESE
Cosmos 332 Rocket 3.8 12:39:37 80° SSW 12:39:37 80° SSW 12:44:23 10° SSE
Cosmos 1943 Rocket 4.5 12:38:27 10° W 12:39:12 11° W 12:39:12 11° W
SL-24 R/B - RUBIN 2 4.5 12:44:38 61° NNE 12:45:28 67° ENE 12:52:01 10° SE
GP-B 3.4 12:41:33 10° S 12:45:33 66° SSW 12:45:33 66° SSW
Cosmos 1125 Rocket 3.4 12:47:03 77° ENE 12:47:10 77° ENE 12:52:32 10° SSE
IDEFIX/ARIANE 42P 3.9 12:46:17 27° ENE 12:48:12 35° ESE 12:53:00 10° S
ISS -1.3 12:51:33 21° SE 12:51:33 21° SE 12:52:48 10° SE
Cosmos 2026 Rocket 3.8 12:49:13 64° NNE 12:50:10 79° E 12:56:19 10° S
Cosmos 2195 Rocket 4.4 12:50:25 65° NNW 12:51:27 85° W 12:57:50 10° S
NPP 4.1 12:50:29 47° ENE 12:51:39 57° ESE 12:57:01 10° S
Cosmos 1627 Rocket 4.3 12:54:36 65° N 12:55:37 88° E 13:01:51 10° S
Cosmos 1271 Rocket 3.9 12:57:36 39° SW 12:57:36 39° SW 13:00:31 10° S
Thor Agena Rocket 3.7 12:55:58 60° ENE 12:56:41 69° ESE 13:01:57 10° S
Gblst 52 Del rocket 4.4 12:56:22 46° W 12:58:06 70° SSW 13:03:42 10° SE
ADEOS Rocket 4.5 12:55:10 10° S 13:00:16 28° WSW 13:02:41 22° W
BREEZE-M DEB (TANK) 4.3 13:03:04 18° SSW 13:03:37 19° S 13:06:27 10° SE
Meteor 2-10 Rocket 3.7 13:05:36 63° NNE 13:06:32 77° E 13:12:26 10° SSE
ALOS 2 3.1 13:02:52 10° S 13:07:01 52° WSW 13:07:01 52° WSW
Cosmos 1048 Rocket 4.1 13:03:24 10° SSW 13:08:46 63° WNW 13:08:48 63° WNW
SME Rocket 3.9 13:08:18 10° S 13:13:44 47° WSW 13:14:08 45° W
Cosmos 292 Rocket 4.3 13:16:01 48° ENE 13:16:15 48° ENE 13:20:58 10° SSE
Okean 2 Rocket 3.5 13:17:48 55° WSW 13:17:48 55° WSW 13:22:09 10° S
Cosmos 1092 Rocket 4.3 13:16:19 48° WNW 13:17:39 57° W 13:23:55 10° S
Cosmos 1953 3.0 13:18:23 47° SW 13:18:23 47° SW 13:21:41 10° S
SL-24 R/B 4.2 13:12:55 10° SSE 13:18:23 86° ENE 13:18:46 76° N
Resurs 1-4 Rocket 2.0 13:19:25 67° NW 13:19:48 69° WNW 13:25:08 10° SSW
AQUA 4.0 13:19:36 58° ENE 13:20:20 68° ESE 13:25:09 10° S
IRIDIUM 104 4.4 13:22:42 59° NNE 13:23:36 72° E 13:28:53 10° S
Cosmos 2369 Rocket 4.1 13:21:33 10° WSW 13:24:01 16° W 13:24:01 16° W
Lacrosse 5 1.9 13:26:14 61° NE 13:26:22 61° NE 13:31:27 10° SE
ADEOS II 2.1 13:30:02 54° NNE 13:31:17 83° ESE 13:36:38 10° SSW
IRIDIUM 114 4.3 13:31:49 63° N 13:32:43 87° E 13:38:03 10° S
Cosmos 1536 Rocket 4.0 13:28:46 10° SSW 13:32:44 51° WSW 13:32:44 51° WSW
CZ-4 R/B 3.6 13:32:49 74° NNW 13:33:10 81° WNW 13:37:57 10° SSW
Okean 1 Rocket 3.0 13:34:30 76° W 13:34:33 77° W 13:39:06 10° S
CZ-2D R/B 2.3 13:34:25 51° WNW 13:34:56 53° W 13:40:21 10° SSW
Cosmos 1833 Rocket 3.7 13:39:21 29° NE 13:41:04 35° ENE 13:46:11 10° SE
IRIDIUM 103 4.3 13:40:57 60° NNW 13:41:52 77° W 13:47:11 10° S
Cosmos 1892 Rocket 4.5 13:37:43 10° S 13:41:57 43° ESE 13:43:19 33° ENE
USA 281 4.2 13:36:02 10° SE 13:42:05 37° ENE 13:45:04 25° NNE
Cosmos 1300 4.2 13:44:54 26° WSW 13:44:54 26° WSW 13:47:40 10° SSW
Cosmos 1340 Rocket 2.7 13:42:04 10° S 13:46:10 85° E 13:46:13 84° ENE
In-Cosmos 22 Rocket 4.4 13:43:53 10° S 13:49:36 67° ESE 13:52:12 32° NNE
NOSS 3-2 (A) 4.1 13:48:32 37° NW 13:52:37 87° WSW 14:00:32 10° SE
VEP-3 4.4 13:55:03 21° NNE 13:56:06 22° NNE 14:05:42 10° ENE
Cosmos 1656 4.1 13:50:44 10° SSW 13:56:22 63° ESE 14:01:04 15° NE
Cosmos 1892 2.6 13:53:01 10° S 13:56:46 76° WSW 13:56:46 76° WSW
Cosmos 1408 3.6 13:56:58 10° SSW 13:59:31 35° SW 13:59:31 35° SW
Meteor 1-11 4.1 13:55:04 10° SSW 14:00:48 75° W 14:02:41 43° N
CENTAUR R/B 3.0 13:58:28 34° NW 14:02:24 77° SW 14:09:28 10° SSE
Cosmos 1455 2.0 14:04:52 84° NNW 14:04:59 89° W 14:08:48 10° S
Cosmos 1633 3.3 14:01:45 10° S 14:05:06 44° E 14:05:45 39° ENE
Cosmos 1455 Rocket 3.0 14:08:24 55° N 14:09:24 90° WSW 14:13:57 10° S
ALOS 3.6 14:05:55 11° NE 14:10:05 38° ESE 14:14:27 10° S
USA 234 3.2 14:05:02 10° SE 14:11:41 86° NE 14:14:58 33° NW
Cosmos 1818 4.0 14:14:37 34° N 14:16:38 52° ENE 14:21:53 10° SE
Lacrosse 4 Rocket 1.2 14:12:47 10° SSW 14:16:50 65° WNW 14:17:12 61° NNW
Cosmos 1655 Rocket 4.0 14:14:38 34° NNW 14:17:38 83° W 14:24:05 10° S
SL-4 R/B 2.1 14:19:38 45° NE 14:19:39 45° NE 14:23:16 10° ESE
Cosmos 1269 Rocket 3.9 14:14:20 10° SSW 14:19:43 81° WNW 14:22:40 27° NNE
Cosmos 2315 Rocket 4.2 14:13:42 10° S 14:20:10 73° E 14:25:10 17° NNE
Cosmos 1238 Rocket 3.3 14:25:22 32° SW 14:25:22 32° SW 14:27:46 10° S
ISS -1.4 14:24:26 13° WSW 14:26:29 21° SSW 14:29:12 10° SSE
IDEFIX/ARIANE 42P 3.5 14:27:05 29° WNW 14:27:44 29° W 14:32:22 10° SW
Cosmos 2266 Rocket 4.2 14:25:19 32° NNW 14:28:18 62° W 14:34:45 10° S
Cosmos 1825 2.4 14:27:19 10° SSW 14:30:59 48° W 14:31:15 47° WNW
S3M 4.1 14:24:52 10° SSW 14:31:02 56° W 14:34:01 30° NNW
MOS 1 Rocket 3.8 14:25:55 10° S 14:31:12 59° WSW 14:33:31 33° NW
SL-16 R/B 4.0 14:28:04 10° SE 14:33:35 31° E 14:39:02 10° NNE
COSMOS 2406 4.0 14:30:48 21° N 14:34:20 47° ENE 14:39:50 10° SE
NOSS 3-2 (C) 4.2 14:30:12 27° NW 14:35:35 84° SW 14:43:29 10° SSE
Cosmos 2082 Rocket 3.3 14:32:49 17° NNE 14:36:40 38° ENE 14:41:54 10° SE
OAO 2 Rocket 4.2 14:36:27 28° N 14:37:06 28° NNE 14:41:22 10° ENE
DNEPR-1 R/B 3.8 14:33:38 10° SW 14:38:02 45° WNW 14:38:57 39° NNW
IRS-1D 3.7 14:40:14 27° N 14:43:05 59° WNW 14:48:27 10° SSW
CBERS-1 4.1 14:38:54 13° NNE 14:43:33 81° ESE 14:48:44 10° SSW
Cosmos 1697 Rocket 2.9 14:39:11 10° SSW 14:44:51 71° ESE 14:50:29 10° NNE
CZ-2C R/B 2.9 14:41:11 10° NNE 14:46:20 68° ESE 14:51:34 10° S
USA 238 DEB 4.0 14:42:46 25° NW 14:47:42 81° SW 14:55:10 10° SSE
USA 238 4.0 14:42:52 25° NW 14:47:48 81° SW 14:55:16 10° SSE
Helios 1B rocket 4.4 14:44:29 10° NE 14:48:01 29° ESE 14:51:35 10° S
SL-08 ROCKET BODY 4.4 14:44:39 23° N 14:48:40 83° W 14:54:47 10° S
BlueWalker 3 2.1 14:49:54 32° WNW 14:51:34 68° SW 14:55:32 10° SE
EO 1 Del DPAF 4.0 14:50:29 10° NE 14:53:22 40° ESE 14:56:18 10° S
MOS 1-B Rocket 3.8 14:50:50 10° SSE 14:56:32 81° WSW 15:00:35 21° NNW
ARIANE 5 R/B 3.6 14:54:25 10° NE 14:59:24 48° ESE 15:04:24 10° S
Uosat 12 SS-18 rocket 4.4 14:57:07 23° NNW 14:59:51 60° ENE 15:04:04 10° SE
Okean 1-7 Rocket 3.6 15:00:31 10° SSW 15:05:07 70° W 15:08:50 15° N
FENGYUN 3A 4.0 15:03:10 19° NNW 15:06:44 46° W 15:11:57 10° SSW
Cosmos 1626 Rocket 3.6 15:02:42 10° SSW 15:07:07 66° W 15:10:38 16° N
Iridium 2 3.5 15:06:54 23° N 15:09:07 76° W 15:12:52 10° S
Lacrosse 5 3.4 15:05:24 11° W 15:09:40 30° SSW 15:14:11 10° SSE
Cosmos 2369 4.4 15:04:58 10° SSW 15:10:42 60° ESE 15:16:21 10° NE
ADEOS II 4.0 15:10:57 11° W 15:11:34 12° W 15:13:22 10° WSW
Cosmos 2360 4.2 15:06:11 10° SSW 15:11:57 68° WNW 15:17:37 10° NNE
Cosmos 1484 Rocket 4.3 15:08:18 10° NE 15:11:57 38° ESE 15:15:42 10° S
Cosmos 2228 3.0 15:16:31 14° N 15:20:13 87° W 15:24:39 10° S
PEGASUS R/B 4.4 15:19:50 10° SSE 15:23:16 47° ENE 15:25:12 15° N
CZ-2D R/B 4.4 15:19:45 10° NNE 15:23:38 48° ESE 15:27:32 10° S
NOSS 3-3 (A) 4.0 15:18:00 10° SW 15:23:53 47° WNW 15:29:05 10° N
NOSS 3-3 (C) 4.0 15:18:07 10° SW 15:24:00 47° WNW 15:29:13 10° N
Cosmos 1833 Rocket 3.7 15:21:02 16° WNW 15:24:58 34° WSW 15:30:06 10° S
USA 281 3.9 15:20:23 10° S 15:26:35 44° WSW 15:31:57 14° WNW
Cosmos 1140 Rocket 3.6 15:23:33 10° SSW 15:28:48 84° ESE 15:34:00 10° NNE
IRS-1C 4.1 15:27:54 10° N 15:33:15 72° WNW 15:38:40 10° SSW
Cosmos 1825 Rocket 4.1 15:29:14 10° S 15:33:39 64° E 15:38:02 10° NNE
Cosmos 1371 Rocket 4.4 15:30:28 10° N 15:35:47 66° ENE 15:41:08 10° SSE
Lacrosse 5 rocket 4.2 15:37:51 10° SSW 15:40:36 19° SSE 15:43:17 10° ESE
ALOS 3.6 15:44:23 12° NW 15:47:32 22° W 15:51:11 10° SW
Cosmos 1602 Rocket 4.2 15:43:31 10° SSW 15:47:33 36° W 15:51:35 10° NNW
UNK 3.9 15:43:20 10° S 15:48:03 66° WSW 15:52:41 10° NNW
Cosmos 407 Rocket 3.5 15:42:50 10° SSW 15:48:08 76° WNW 15:53:26 10° NNE
GEOS 3 Rocket 4.3 15:44:21 10° N 15:49:08 34° WNW 15:53:55 10° SW
Cosmos 1758 Rocket 4.1 15:46:18 10° SSW 15:50:32 41° W 15:54:45 10° NNW
Meteor 2-1 Rocket 4.4 15:44:46 10° NNW 15:50:41 66° WSW 15:56:40 10° S
Meteor 1-28 Rocket 3.5 15:47:30 10° S 15:51:13 51° WSW 15:54:54 10° NNW
CENTAUR R/B 4.5 15:48:18 10° W 15:54:00 22° SW 15:59:04 10° SSE
USA 234 4.4 15:48:21 10° SE 15:54:14 36° SSW 16:00:07 10° W
Cosmos 1980 Rocket 2.2 15:49:10 10° SSW 15:54:48 64° WNW 16:00:21 10° N
BREEZE-M DEB (TANK) 3.7 15:47:22 10° SW 15:55:15 45° NW 15:58:15 10° NNE
ASTEX 1 3.7 15:52:02 10° S 15:57:08 75° E 16:02:09 10° N
Cosmos 1726 Rocket 3.6 15:52:56 10° N 15:57:22 79° W 16:01:52 10° S
Cosmos 2056 Rocket 3.5 15:52:54 10° NNW 15:58:11 85° WSW 16:03:27 10° SSE
SL-4 R/B 3.2 15:55:50 10° W 15:59:09 31° SSW 16:02:41 10° SE
SL-16 R/B 4.0 15:54:04 10° S 15:59:23 37° ESE 16:04:38 10° NE
Cosmos 1400 Rocket 4.0 15:56:25 10° S 16:00:25 47° ESE 16:04:24 10° NNE
YAOGAN 6 2.8 15:58:03 10° N 16:01:38 53° W 16:05:17 10° SSW
Meteor 2-3 Rocket 4.2 15:57:36 10° S 16:03:19 67° ESE 16:08:55 10° NNE
ISS -0.8 16:02:20 10° SSW 16:04:14 14° S 16:06:08 10° SE
Cosmos 1356 Rocket 3.3 16:01:11 10° SSW 16:05:16 82° W 16:09:21 10° N
Cosmos 2251 Rocket 4.3 16:06:20 10° SW 16:10:59 31° W 16:15:34 10° NNW
ATLAS 5 CENTAUR R/B 1.8 16:07:17 10° SW 16:12:46 68° WNW 16:17:10 10° NNE
